Starlink 32912

operational
NORAD ID: 63088 Int'l Des: 2025-037 Owner: SPXS Country: US Constellation: starlink
LEOCIRCULAR

Starlink 32912について

説明を読み込み中...

リアルタイム位置

3D地球を読み込み中...

次回通過

高度履歴

Altitude vs Time

uPlot chart will show altitude changes over time

軌道要素

1 63088U 25037M 25259.22928193 .00002797 00000-0 24211-3 0 9999
2 63088 70.0012 74.1712 0002930 269.3861 90.6962 14.98337594 32570
Epoch: Sep 16, 2025 • Age: 9 hours

現在のステータス

高度 582.1 km
速度 7.57 km/s
衛星直下点 -31.19°S, 159.81°W
打ち上げ日 Feb 23, 2025
運用期間 0.5 years
タイプ internet

技術仕様

分類 Payload
質量 730.00 kg
乾燥質量 700.00 kg
総質量 730.00 kg
長さ 0.30 m
直径 4.10 m
スパン 29.00 m
形状 Box + pan
製造者 SPXS
バスタイプ Starlink V2M
フェーズステータス In Orbit
所有者/国 SPXS/US

大規模コンステレーション

Loading constellations...